Belleville, IL

2:41 PM CST on January 23, 2018 (GMT -0600)
Scott Air Force Base-Midamerica

Weather History for KBLV - November, 2011

Change the Weather History Date:

Saturday, November 19, 2011

  Actual Average Record
Temperature  
Mean Temperature 52 °F -  
Max Temperature 60 °F 56 °F 75 °F (1991)
Min Temperature 45 °F 36 °F 20 °F (1951)
Degree Days  
Heating Degree Days 12    
Growing Degree Days 2 (Base 50)    
Moisture  
Dew Point 44 °F    
Average Humidity 68    
Maximum Humidity 87    
Minimum Humidity 44    
Precipitation  
Precipitation 0.00 in - - ()
Sea Level Pressure  
Sea Level Pressure 29.93 in    
Wind  
Wind Speed 8 mph (South)    
Max Wind Speed 15 mph    
Max Gust Speed 25 mph    
Visibility 10 miles    
Events      
Averages and records for this station are not official NWS values.
T = Trace of Precipitation, MM = Missing Value Source: NWS Daily Summary

Daily Weather History Graph

Daily Weather History Graph

Search for Another Location

Airport or City:

Trip Planner

Search our weather history database for the weather conditions in past years. The results will help you decide how hot, cold, wet, or windy it might be!

Date:

Astronomy

Nov. 19, 2011 Rise Set
Actual Time 6:45 AM CST 4:43 PM CST
Civil Twilight 6:16 AM CST 5:12 PM CST
Nautical Twilight 5:44 AM CST 5:44 PM CST
Astronomical Twilight 5:12 AM CST 6:16 PM CST
Moon 12:10 AM CST (11/19) 12:57 PM CST (11/19)
Length of Visible Light 10h 55m
Length of Day
9h 58m
Last Quarter, 38% of the Moon is Illuminated
Nov 19
Last Quarter
Nov 25
New
Dec 2
First Quarter
Dec 10
Full
Dec 17
Last Quarter

Hourly Weather History & Observations

Time (CST) Temp. Windchill Dew Point Humidity Pressure Visibility Wind Dir Wind Speed Gust Speed Precip Events Conditions
12:55 AM 45.1 °F 41.4 °F 26.4 °F 48% 30.01 in 10.0 mi South 6.9 mph - N/A   Clear
1:55 AM 47.3 °F - 27.7 °F 47% 30.01 in 10.0 mi South 4.6 mph - N/A   Overcast
2:55 AM 48.4 °F - 27.5 °F 44% 29.99 in 10.0 mi SSE 9.2 mph - N/A   Overcast
3:55 AM 48.0 °F - 28.9 °F 48% 29.98 in 10.0 mi SSE 6.9 mph - N/A   Overcast
4:55 AM 49.1 °F - 29.3 °F 46% 29.97 in 10.0 mi South 8.1 mph - N/A   Overcast
5:55 AM 49.6 °F - 31.5 °F 50% 29.96 in 10.0 mi SSE 9.2 mph - N/A   Overcast
6:55 AM 48.9 °F - 34.3 °F 57% 29.95 in 10.0 mi South 8.1 mph - N/A   Overcast
7:42 AM 50.0 °F - 37.4 °F 62% 29.95 in 10.0 mi South 9.2 mph - N/A   Overcast
7:55 AM 49.5 °F - 37.2 °F 63% 29.95 in 10.0 mi South 11.5 mph 17.3 mph N/A   Overcast
8:55 AM 51.6 °F - 40.6 °F 66% 29.95 in 10.0 mi South 6.9 mph 20.7 mph N/A   Overcast
9:18 AM 51.8 °F - 41.0 °F 67% 29.96 in 10.0 mi South 15.0 mph 21.9 mph N/A   Overcast
9:55 AM 53.8 °F - 43.0 °F 67% 29.93 in 10.0 mi South 12.7 mph 21.9 mph N/A   Overcast
10:16 AM 53.6 °F - 42.8 °F 67% 29.92 in 10.0 mi SSE 12.7 mph 21.9 mph N/A   Overcast
10:55 AM 54.9 °F - 44.2 °F 67% 29.92 in 10.0 mi South 10.4 mph 21.9 mph N/A   Overcast
11:55 AM 56.5 °F - 46.6 °F 69% 29.88 in 10.0 mi South 11.5 mph 25.3 mph N/A   Overcast
12:55 PM 57.4 °F - 48.0 °F 71% 29.84 in 10.0 mi South 11.5 mph 21.9 mph N/A   Overcast
1:55 PM 58.6 °F - 49.1 °F 71% 29.84 in 10.0 mi South 13.8 mph 24.2 mph N/A   Overcast
2:55 PM 57.6 °F - 49.1 °F 73% 29.85 in 10.0 mi South 8.1 mph - N/A   Overcast
3:55 PM 58.8 °F - 50.7 °F 74% 29.86 in 10.0 mi South 10.4 mph - N/A   Overcast
4:55 PM 60.3 °F - 52.5 °F 76% 29.86 in 10.0 mi Variable 5.8 mph - N/A   Overcast
5:40 PM 60.8 °F - 51.8 °F 72% 29.90 in 10.0 mi Variable 5.8 mph - N/A   Overcast
5:55 PM 60.1 °F - 52.7 °F 77% 29.90 in 10.0 mi Variable 6.9 mph - N/A   Overcast
6:08 PM 59.0 °F - 53.6 °F 82% 29.90 in 10.0 mi Variable 5.8 mph - N/A   Overcast
6:55 PM 60.1 °F - 53.4 °F 79% 29.91 in 10.0 mi Variable 4.6 mph - N/A   Mostly Cloudy
7:55 PM 58.5 °F - 53.6 °F 84% 29.93 in 10.0 mi Variable 6.9 mph - N/A   Clear
8:55 PM 59.0 °F - 54.9 °F 86% 29.94 in 10.0 mi Variable 5.8 mph - N/A   Clear
9:55 PM 60.3 °F - 56.1 °F 86% 29.96 in 10.0 mi Variable 4.6 mph - N/A   Clear
10:55 PM 60.1 °F - 56.3 °F 87% 29.97 in 10.0 mi Variable 3.5 mph - N/A   Mostly Cloudy
11:55 PM 60.6 °F - 56.5 °F 86% 29.99 in 10.0 mi Calm Calm - N/A   Mostly Cloudy